Colby, KS

10:45 AM CDT on August 18, 2017 (GMT -0500)
Shaltz

Weather History for KCBK - June, 2014

Change the Weather History Date:

Tuesday, June 3, 2014

  Actual Average (KGLD) Record (KGLD)
Temperature  
Mean Temperature 80 °F -  
Max Temperature 96 °F 77 °F 99 °F (1933)
Min Temperature 64 °F 51 °F 34 °F (1954)
Cooling Degree Days 15    
Growing Degree Days 30 (Base 50)    
Moisture  
Dew Point 64 °F    
Average Humidity 64    
Maximum Humidity 100    
Minimum Humidity 32    
Precipitation  
Precipitation 0.00 in - - ()
Sea Level Pressure  
Sea Level Pressure 29.84 in    
Wind  
Wind Speed 16 mph (SSE)    
Max Wind Speed 30 mph    
Max Gust Speed 44 mph    
Visibility 9 miles    
Events      
Averages and records for this station are not official NWS values.
T = Trace of Precipitation, MM = Missing Value Source: NWS Daily Summary

Daily Weather History Graph

Daily Weather History Graph

Search for Another Location

Airport or City:

Trip Planner

Search our weather history database for the weather conditions in past years. The results will help you decide how hot, cold, wet, or windy it might be!

Date:

Astronomy

Jun. 03, 2014 Rise Set
Actual Time 6:18 AM CDT 9:06 PM CDT
Civil Twilight 5:46 AM CDT 9:38 PM CDT
Nautical Twilight 5:06 AM CDT 10:18 PM CDT
Astronomical Twilight 4:20 AM CDT 11:04 PM CDT
Moon 11:42 AM CDT (6/3) 12:36 AM CDT (6/3)
Length of Visible Light 15h 52m
Length of Day
14h 48m
Waxing Crescent, 30% of the Moon is Illuminated
Jun 3
Waxing Crescent
Jun 5
First Quarter
Jun 12
Full
Jun 19
Last Quarter
Jun 27
New

Hourly Weather History & Observations

Time (CDT) Temp. Heat Index Dew Point Humidity Pressure Visibility Wind Dir Wind Speed Gust Speed Precip Events Conditions
12:10 AM 71.6 °F - 64.4 °F 78% 30.03 in 10.0 mi SSE 13.8 mph - N/A   Scattered Clouds
12:30 AM 71.6 °F - 64.4 °F 78% 30.03 in 10.0 mi SSE 11.5 mph - N/A   Mostly Cloudy
12:50 AM 69.8 °F - 64.4 °F 83% 30.03 in 10.0 mi SSE 11.5 mph - N/A   Scattered Clouds
1:10 AM 69.8 °F - 66.2 °F 88% 30.02 in 10.0 mi SSE 12.7 mph - N/A   Clear
1:30 AM 69.8 °F - 66.2 °F 88% 30.02 in 10.0 mi South 13.8 mph - N/A   Clear
1:50 AM 69.8 °F - 64.4 °F 83% 30.02 in 10.0 mi SSE 11.5 mph - N/A   Clear
2:10 AM 69.8 °F - 64.4 °F 83% 30.01 in 10.0 mi SSE 10.4 mph - N/A   Clear
2:30 AM 69.8 °F - 64.4 °F 83% 30.01 in 10.0 mi SSE 10.4 mph - N/A   Clear
2:50 AM 68.0 °F - 64.4 °F 88% 30.01 in 10.0 mi SSE 8.1 mph - N/A   Scattered Clouds
3:10 AM 66.2 °F - 64.4 °F 94% 30.00 in 10.0 mi SSE 9.2 mph - N/A   Scattered Clouds
3:30 AM 68.0 °F - 64.4 °F 88% 30.00 in 10.0 mi SSE 10.4 mph - N/A   Scattered Clouds
3:50 AM 66.2 °F - 64.4 °F 94% 29.99 in 10.0 mi SSE 9.2 mph - N/A   Scattered Clouds
4:10 AM 66.2 °F - 64.4 °F 94% 29.99 in 10.0 mi SSE 10.4 mph - N/A   Mostly Cloudy
4:30 AM 66.2 °F - 64.4 °F 94% 29.98 in 7.0 mi SE 8.1 mph - N/A   Scattered Clouds
4:50 AM 64.4 °F - 64.4 °F 100% 29.98 in 7.0 mi SE 10.4 mph - N/A   Scattered Clouds
5:10 AM 64.4 °F - 64.4 °F 100% 29.97 in 5.0 mi SE 9.2 mph - N/A   Clear
5:30 AM 64.4 °F - 64.4 °F 100% 29.97 in 4.0 mi SE 10.4 mph - N/A   Clear
5:50 AM 64.4 °F - 64.4 °F 100% 29.97 in 3.0 mi SE 10.4 mph - N/A   Clear
6:10 AM 64.4 °F - 64.4 °F 100% 29.97 in 1.8 mi SE 10.4 mph - N/A   Overcast
6:30 AM 64.4 °F - 64.4 °F 100% 29.97 in 1.2 mi SE 10.4 mph - N/A   Overcast
6:50 AM 64.4 °F - 64.4 °F 100% 29.97 in 1.0 mi SE 11.5 mph - N/A   Overcast
7:10 AM 64.4 °F - 64.4 °F 100% 29.97 in 1.2 mi SSE 12.7 mph - N/A   Overcast
7:30 AM 66.2 °F - 66.2 °F 100% 29.96 in 2.0 mi SSE 15.0 mph 19.6 mph N/A   Mostly Cloudy
7:50 AM 68.0 °F - 68.0 °F 100% 29.96 in 4.0 mi SSE 17.3 mph 20.7 mph N/A   Scattered Clouds
8:10 AM 69.8 °F - 68.0 °F 94% 29.95 in 5.0 mi SSE 13.8 mph 20.7 mph N/A   Scattered Clouds
8:30 AM 69.8 °F - 68.0 °F 94% 29.94 in 7.0 mi SSE 19.6 mph - N/A   Clear
8:50 AM 73.4 °F - 68.0 °F 83% 29.95 in 10.0 mi SSE 21.9 mph 25.3 mph N/A   Clear
9:10 AM 75.2 °F - 68.0 °F 78% 29.93 in 10.0 mi South 18.4 mph 21.9 mph N/A   Clear
9:30 AM 77.0 °F - 68.0 °F 74% 29.92 in 10.0 mi South 20.7 mph 27.6 mph N/A   Clear
9:50 AM 78.8 °F - 68.0 °F 69% 29.91 in 10.0 mi SSE 19.6 mph 28.8 mph N/A   Clear
10:10 AM 80.6 °F 83.2 °F 68.0 °F 65% 29.90 in 10.0 mi South 23.0 mph 35.7 mph N/A   Clear
10:30 AM 82.4 °F 85.4 °F 68.0 °F 62% 29.89 in 10.0 mi South 24.2 mph 36.8 mph N/A   Clear
10:50 AM 82.4 °F 84.6 °F 66.2 °F 58% 29.87 in 10.0 mi South 29.9 mph 38.0 mph N/A   Clear
11:10 AM 84.2 °F 87.3 °F 68.0 °F 58% 29.86 in 10.0 mi South 23.0 mph 31.1 mph N/A   Clear
11:30 AM 84.2 °F 86.6 °F 66.2 °F 55% 29.85 in 10.0 mi South 20.7 mph 35.7 mph N/A   Clear
11:50 AM 86.0 °F 89.4 °F 68.0 °F 55% 29.84 in 10.0 mi South 23.0 mph 35.7 mph N/A   Clear
12:10 PM 86.0 °F 89.4 °F 68.0 °F 55% 29.84 in 10.0 mi South 28.8 mph 34.5 mph N/A   Clear
12:30 PM 87.8 °F 90.4 °F 66.2 °F 49% 29.82 in 10.0 mi South 26.5 mph 36.8 mph N/A   Clear
12:50 PM 87.8 °F 90.4 °F 66.2 °F 49% 29.81 in 10.0 mi South 26.5 mph 36.8 mph N/A   Clear
1:10 PM 87.8 °F 89.4 °F 64.4 °F 46% 29.80 in 10.0 mi South 28.8 mph 35.7 mph N/A   Clear
1:30 PM 89.6 °F 91.1 °F 64.4 °F 43% 29.78 in 7.0 mi South 24.2 mph 36.8 mph N/A   Clear
1:50 PM 89.6 °F 91.1 °F 64.4 °F 43% 29.78 in 7.0 mi South 27.6 mph 43.7 mph N/A   Clear
2:10 PM 89.6 °F 90.1 °F 62.6 °F 40% 29.78 in 7.0 mi South 27.6 mph 40.3 mph N/A   Clear
2:30 PM 91.4 °F 92.1 °F 62.6 °F 38% 29.77 in 7.0 mi South 28.8 mph 41.4 mph N/A   Clear
2:50 PM 91.4 °F 93.2 °F 64.4 °F 41% 29.76 in 10.0 mi South 26.5 mph 39.1 mph N/A   Clear
3:30 PM 91.4 °F 92.1 °F 62.6 °F 38% 29.75 in 10.0 mi South 20.7 mph 36.8 mph N/A   Clear
3:50 PM 91.4 °F 92.1 °F 62.6 °F 38% 29.75 in 10.0 mi South 27.6 mph 34.5 mph N/A   Clear
4:10 PM 91.4 °F 92.1 °F 62.6 °F 38% 29.74 in 10.0 mi South 23.0 mph 32.2 mph N/A   Clear
4:30 PM 93.2 °F 93.3 °F 60.8 °F 34% 29.72 in 10.0 mi South 19.6 mph 27.6 mph N/A   Clear
4:50 PM 93.2 °F 94.1 °F 62.6 °F 36% 29.71 in 10.0 mi South 19.6 mph 28.8 mph N/A   Clear
5:10 PM 95.0 °F 96.0 °F 62.6 °F 34% 29.70 in 10.0 mi South 24.2 mph 32.2 mph N/A   Clear
5:30 PM 95.0 °F 96.0 °F 62.6 °F 34% 29.69 in 10.0 mi SSE 23.0 mph 32.2 mph N/A   Clear
5:50 PM 96.8 °F 98.0 °F 62.6 °F 32% 29.68 in 10.0 mi South 28.8 mph 36.8 mph N/A   Clear
6:10 PM 95.0 °F 96.0 °F 62.6 °F 34% 29.67 in 10.0 mi South 23.0 mph 36.8 mph N/A   Clear
6:30 PM 95.0 °F 95.2 °F 60.8 °F 32% 29.66 in 10.0 mi South 26.5 mph 34.5 mph N/A   Clear
6:50 PM 95.0 °F 95.2 °F 60.8 °F 32% 29.65 in 10.0 mi South 26.5 mph 34.5 mph N/A   Clear
7:10 PM 95.0 °F 95.2 °F 60.8 °F 32% 29.64 in 10.0 mi South 20.7 mph 31.1 mph N/A   Clear
7:30 PM 93.2 °F 92.6 °F 59.0 °F 32% 29.63 in 10.0 mi South 17.3 mph 28.8 mph N/A   Clear
7:50 PM 91.4 °F 90.7 °F 59.0 °F 34% 29.63 in 10.0 mi South 21.9 mph 32.2 mph N/A   Clear
8:10 PM 91.4 °F 90.7 °F 59.0 °F 34% 29.62 in 10.0 mi South 24.2 mph 29.9 mph N/A   Clear
8:30 PM 89.6 °F 88.9 °F 59.0 °F 36% 29.63 in 10.0 mi South 19.6 mph 25.3 mph N/A   Clear
8:50 PM 87.8 °F 86.5 °F 57.2 °F 35% 29.63 in 10.0 mi SSW 18.4 mph 25.3 mph N/A   Clear
9:10 PM 87.8 °F 87.1 °F 59.0 °F 38% 29.62 in 10.0 mi SSW 23.0 mph 28.8 mph N/A   Clear
9:30 PM 86.0 °F 85.4 °F 59.0 °F 40% 29.62 in 10.0 mi South 21.9 mph 27.6 mph N/A   Clear
9:50 PM 86.0 °F 84.5 °F 55.4 °F 35% 29.63 in 10.0 mi South 26.5 mph 35.7 mph N/A   Clear
10:15 PM 82.4 °F 82.0 °F 57.2 °F 42% 29.64 in 10.0 mi South 20.7 mph 27.6 mph N/A   Clear
10:30 PM 80.6 °F 81.1 °F 59.0 °F 48% 29.66 in 10.0 mi South 17.3 mph 29.9 mph N/A   Clear
10:50 PM 78.8 °F - 59.0 °F 51% 29.68 in 10.0 mi SSW 12.7 mph 25.3 mph N/A   Clear
11:10 PM 77.0 °F - 60.8 °F 57% 29.71 in 10.0 mi NNW 17.3 mph 20.7 mph N/A   Clear
11:30 PM 71.6 °F - 62.6 °F 73% 29.73 in 10.0 mi North 20.7 mph 25.3 mph N/A   Clear
11:50 PM 68.0 °F - 62.6 °F 83% 29.75 in 10.0 mi North 25.3 mph 33.4 mph N/A   Clear